Location: Campbell River
(50.0170°N, 125.2500°W)
Time: 11:49:27
(UTC-07:00)

Daily predictions for brighter satellites

Satellite Brightness Start Highest point End
(mag) Time Altitude Azimuth Time Altitude Azimuth Time Altitude Azimuth
FENGYUN 3A 3.7 20:37:40 10° SSE 20:43:02 88° ENE 20:48:25 10° NNW
Cosmos 1656 4.2 20:39:45 10° S 20:44:51 37° ESE 20:49:55 10° NE
Cosmos 2263 Rocket 4.0 20:41:47 10° N 20:45:32 18° NE 20:49:17 10° ENE
Cosmos 1898 Rocket 3.6 20:40:27 10° NNW 20:45:47 69° ENE 20:51:02 10° SSE
Meteor 1-29 3.5 20:42:47 10° N 20:46:13 65° WNW 20:49:40 10° SSW
Resurs 01 Rocket 3.2 20:43:15 10° SSW 20:47:26 40° W 20:51:39 10° NNW
Cosmos 1500 4.1 20:44:32 10° SSE 20:47:45 27° E 20:51:00 10° NNE
Cosmos 2227 Rocket 3.1 20:44:42 10° NW 20:50:11 51° WSW 20:55:37 10° S
Cosmos 1340 3.9 20:48:43 10° NNE 20:51:53 24° ENE 20:55:03 10° SE
NOSS 2-1 (E) 4.0 20:48:03 10° SW 20:52:07 71° NW 20:57:07 10° NE
Cosmos 1934 Rocket 4.2 20:47:14 10° S 20:53:24 84° W 20:59:44 10° N
Cosmos 1346 Rocket 4.3 20:55:30 10° NNW 20:59:11 39° W 21:02:55 10° SSW
USA 186 1.8 20:58:31 10° S 21:01:30 69° WSW 21:04:17 10° NNW
Cosmos 468 Rocket 4.4 20:58:59 10° S 21:03:43 39° ESE 21:08:29 10° NE
Meteor 1-12 Rocket 4.3 20:58:28 10° S 21:04:12 73° E 21:10:05 10° NNE
Cosmos 2297 Rocket 3.0 20:59:46 10° NW 21:05:16 53° WSW 21:10:44 10° S
Cosmos 1939 Rocket 3.4 21:01:29 10° SE 21:05:26 44° ENE 21:09:26 10° N
Cosmos 1515 3.7 21:03:07 10° N 21:07:00 86° E 21:10:50 10° S
ALOS 3.1 21:03:11 10° S 21:07:45 54° W 21:12:21 10° NNW
USA 215 3.8 21:06:48 10° E 21:13:08 55° NNE 21:19:29 10° WNW
Cosmos 972 Rocket 4.5 21:07:59 10° NNW 21:13:51 81° ENE 21:20:26 10° SSE
Cosmos 2227 4.4 21:08:36 10° NNW 21:14:20 59° ENE 21:19:24 13° SE
Cosmos 1814 Rocket 4.4 21:10:27 10° S 21:15:27 43° ESE 21:20:27 10° NE
Cosmos 1802 Rocket 4.5 21:10:55 10° SSE 21:16:52 42° E 21:22:52 10° NNE
Cosmos 1825 Rocket 3.7 21:15:32 10° N 21:19:54 54° ENE 21:23:59 11° SSE
Tiangong 1 3.0 21:19:08 10° WSW 21:21:17 17° SSW 21:22:45 13° SSE
ASTEX 1 4.4 21:17:25 10° NNE 21:21:46 29° E 21:25:07 15° SE
Cosmos 2016 Rocket 4.4 21:21:06 10° SSE 21:26:46 41° E 21:32:33 10° NNE
RESURS DK-1 2.7 21:23:32 10° NW 21:27:39 63° WSW 21:31:31 11° SSE
Cosmos 1743 3.1 21:24:00 10° SSE 21:27:43 43° E 21:31:28 10° NNE
SL-24 R/B - RUBIN 2 4.4 21:22:27 10° SSW 21:28:28 73° SE 21:35:05 10° NE
ATLAS CENTAUR R/B 4.3 21:25:56 10° WNW 21:29:44 22° NNW 21:33:25 10° NNE
Cosmos 1953 Rocket 3.8 21:26:34 10° N 21:30:56 52° ENE 21:34:19 16° SSE
H-2A R/B 2.0 21:35:03 17° SSE 21:38:03 62° ENE 21:42:12 10° N
Cosmos 2173 Rocket 4.0 21:32:35 10° S 21:38:52 67° E 21:45:09 10° NNE
Iridium 4 Rocket 4.1 21:35:53 10° N 21:40:54 55° W 21:45:28 10° SSW
BREEZE-M DEB (TANK) 4.0 21:40:09 10° W 21:43:37 61° SSW 21:50:26 19° ESE
Cosmos 2228 4.1 21:44:12 23° ESE 21:45:04 24° E 21:48:33 10° NNE
Cosmos 1697 Rocket 2.6 21:39:27 10° SSW 21:45:06 78° ESE 21:50:46 10° NNE
Cosmos 1937 Rocket 4.1 21:42:04 10° NNW 21:47:14 55° WSW 21:52:23 10° S
Envisat 3.1 21:43:51 11° SSE 21:48:50 80° WSW 21:53:57 10° NNW
Cosmos 1758 Rocket 3.5 21:45:11 10° N 21:49:34 68° ENE 21:52:16 22° SSE
Cosmos 2100 Rocket 4.0 21:48:06 10° S 21:54:23 90° N 22:00:38 10° N
Cosmos 1842 3.3 21:51:09 10° N 21:55:04 62° ENE 21:56:49 30° SSE
PSLV R/B 3.5 21:54:54 40° ESE 21:55:29 47° ENE 21:58:28 10° N
deb Chang Zheng 4 3.7 21:51:26 10° NNE 21:55:51 55° ESE 21:59:15 16° S
SL-16 R/B 3.2 21:54:57 24° ESE 21:55:53 25° ESE 22:00:25 10° NE
Cosmos 990 Rocket 4.5 21:52:42 10° NNW 21:57:53 60° WSW 22:02:09 15° S
NOAA 11 4.5 21:55:11 24° SE 21:58:14 51° ENE 22:03:32 10° N
CZ-4B R/B 4.3 21:55:36 10° NE 21:59:34 26° E 21:59:59 25° ESE
Lacrosse 5 3.3 21:55:37 10° WNW 21:59:57 29° SW 22:03:17 15° S
Tsikada Rocket 4.1 21:53:34 10° N 21:59:59 63° ENE 22:04:10 22° SSE
ARGOS 3.4 21:57:55 25° SE 22:00:48 52° ENE 22:06:03 10° N
Cosmos 2061 Rocket 4.1 21:58:43 10° S 22:05:01 84° W 22:11:18 10° N
Cosmos 1980 Rocket 2.1 22:03:01 10° SSW 22:08:41 74° ESE 22:14:24 10° NNE
H-2A R/B 2.8 22:08:08 27° E 22:09:46 34° ENE 22:14:11 10° N
Cosmos 2360 Rocket 4.2 22:11:52 12° ENE 22:11:52 12° ENE 22:12:36 10° ENE
SPOT 5 2.9 22:07:52 21° S 22:11:12 78° WSW 22:15:57 10° NNW
CZ-4 SHROUD 3.0 22:11:39 64° ESE 22:11:56 70° ENE 22:15:01 10° N
Cosmos 1666 2.6 22:10:53 39° SSE 22:12:05 64° E 22:15:52 10° NNE
MetOp-B 4.1 22:09:33 23° SSE 22:13:02 86° WSW 22:18:27 10° NNW
ERS-1 Rocket 4.2 22:09:13 10° SSW 22:13:54 39° W 22:18:37 10° NNW
Landsat 7 4.3 22:17:54 34° ESE 22:19:15 43° ENE 22:23:46 10° N
Cosmos 2058 Rocket 3.0 22:18:15 27° S 22:20:40 77° E 22:25:11 10° NNE
Cosmos 1459 Rocket 4.4 22:17:14 10° SSW 22:23:13 61° WNW 22:29:20 10° N
Cosmos 1606 Rocket 3.9 22:20:41 11° SSW 22:24:53 66° WNW 22:29:21 10° N
YAOGAN 6 3.0 22:25:12 37° SSW 22:26:27 61° W 22:30:10 10° NNW
Cosmos 1725 Rocket 3.9 22:22:33 19° S 22:27:08 76° E 22:33:24 10° NNE
Cosmos 1763 Rocket 3.4 22:22:28 10° SSW 22:27:34 86° WNW 22:32:40 10° NNE
Cosmos 1340 4.4 22:24:18 10° NNW 22:27:40 30° W 22:30:09 15° SSW
Cosmos 2098 Rocket 3.8 22:22:30 12° S 22:28:52 86° E 22:34:16 10° N
SPOT 1/Viking Rocket 3.5 22:26:33 33° SSE 22:28:58 90° WSW 22:34:13 10° NNW
Cosmos 2263 Rocket 2.2 22:25:01 10° NNW 22:30:35 66° ENE 22:32:32 40° SE
Cosmos 1125 Rocket 3.6 22:28:55 10° NNW 22:34:07 69° WSW 22:36:17 35° S
Terra 2.3 22:33:41 39° E 22:34:33 43° ENE 22:39:04 10° N
Meteor 2-5 Rocket 4.0 22:30:23 10° N 22:36:15 58° ENE 22:38:07 41° SE
CARTOSAT-1 4.0 22:35:59 42° E 22:36:23 43° ENE 22:40:30 10° N
CZ-4 R/B 4.1 22:33:20 10° NNE 22:37:54 44° E 22:38:00 44° ESE
Cosmos 2322 Rocket 2.2 22:40:22 39° SSE 22:42:13 57° ESE 22:47:45 10° NE
Meteor 1-15 Rocket 4.2 22:38:38 22° S 22:42:33 88° E 22:48:26 10° NNE
BREEZE-M DEB (TANK) 3.3 22:33:38 10° WSW 22:42:51 48° S 22:43:19 46° SSE
DELTA 2 DEB (DPAF) 4.2 22:43:36 56° ESE 22:44:11 61° ENE 22:48:37 10° N
Genesis I 3.3 22:43:04 10° NW 22:47:02 63° NE 22:47:08 62° NE
Cosmos 405 Rocket 2.6 22:45:20 10° NNW 22:49:07 78° W 22:49:08 78° WSW
Cosmos 2233 Rocket 3.9 22:48:18 38° S 22:50:47 72° E 22:57:03 10° NNE
Meteor 1-24 Rocket 4.3 22:45:08 10° N 22:50:59 47° ENE 22:52:20 41° ESE
Cosmos 841 Rocket 3.8 22:46:01 10° SW 22:51:13 65° WNW 22:56:26 10° NNE
Meteor 2-9 Rocket 4.4 22:50:36 19° SSW 22:54:35 67° WNW 22:59:58 10° N
USA 215 3.2 22:53:25 41° SE 22:55:58 84° SSW 23:02:34 10° WNW
Cosmos 2360 4.4 22:51:18 10° SW 22:57:01 72° WNW 23:02:47 10° NNE
Cosmos 1812 Rocket 3.7 22:58:22 55° ENE 22:58:22 55° ENE 23:02:12 10° NNE
Cosmos 540 Rocket 3.3 23:02:06 64° SSE 23:02:43 71° ESE 23:07:51 10° NNE
Spot 4 3.9 23:03:12 57° E 23:03:30 58° ENE 23:08:12 10° N
IGS 5A 3.5 23:05:04 68° NE 23:05:04 68° NE 23:08:59 10° N
CZ-4C R/B 3.5 23:09:13 79° SW 23:09:22 81° WSW 23:13:46 10° NNW
Cosmos 372 Rocket 4.5 23:08:41 10° NNW 23:13:39 51° WSW 23:14:38 44° SW
Cosmos 2034 Rocket 4.5 23:14:56 41° E 23:15:06 41° E 23:20:50 10° NNE
Cosmos 2278 Rocket 3.7 23:15:39 10° NNW 23:20:25 27° NE 23:22:10 23° ENE
Cosmos 2228 4.3 23:21:02 28° WSW 23:22:28 37° WNW 23:26:29 10° N
Cosmos 1375 Rocket 4.5 23:19:14 14° SW 23:25:06 90° SE 23:31:45 10° NE
DMSP B5D2-2 4.0 23:21:33 10° NNE 23:26:51 73° ESE 23:26:53 73° ESE
BREEZE-M DEB (TANK) 4.2 23:20:53 10° WNW 23:35:52 45° SW 23:36:51 42° SSW
Cosmos 1464 Rocket 3.9 23:36:22 66° SSE 23:37:13 76° E 23:43:35 10° NNE
GP-B 3.5 23:32:55 10° N 23:37:09 59° WNW 23:37:09 59° WNW
CZ-4B R/B 4.2 23:33:56 10° N 23:38:29 46° WNW 23:39:55 35° WSW
Cosmos 1513 Rocket 4.4 23:38:43 64° ESE 23:39:04 65° E 23:45:19 10° NNE
SL-16 R/B 2.5 23:36:43 30° SW 23:39:33 64° WNW 23:45:13 10° NNE
Cosmos 1707 3.9 23:35:54 10° NNW 23:38:54 40° WNW 23:38:54 40° WNW
Okean 3 Rocket 4.1 23:38:02 10° NNW 23:41:54 57° WNW 23:41:54 57° WNW
Cosmos 1844 Rocket 2.8 23:36:57 10° NNW 23:42:29 58° NE 23:42:46 57° ENE
CZ-4B R/B 4.3 23:45:37 13° NE 23:45:37 13° NE 23:46:32 10° NNE
Meteor 1-22 Rocket 4.2 23:45:41 72° E 23:45:41 72° E 23:51:11 10° NNE
Cosmos 1844 4.1 23:40:54 10° NNW 23:46:28 50° NE 23:46:55 49° ENE
Nadezhda 4 Rocket 4.0 23:40:32 10° N 23:46:52 66° ENE 23:47:23 63° ESE
H-2A R/B 2.9 23:48:47 37° WSW 23:49:10 37° W 23:53:46 10° NNW
Cosmos 2360 Rocket 2.2 23:53:36 69° ENE 23:53:36 69° ENE 23:58:42 10° NNE
Cosmos 1980 Rocket 4.2 23:48:31 10° W 23:53:17 27° NW 23:58:05 10° NNE
